This demonstration page uses our WeatherBlox Daily Observations layout. Learn more.

Left ArrowRight Arrow

Hourly Observations for February 19, 2018

Temp ( °F °C ) Dew Point ( °F °C ) Humidity (%) Winds ( mph kmh ) Pressure ( in mb ) Visibility ( mi km ) Precip ( " mm )
12:38 am 00:38 Cloudy 27 -3 23 -5 86 86 NNE 25 41 29.77 1008 10 16 0.00 0.00
12:53 am 00:53 Cloudy 27 -2.8 23 -5 85 85 NNE 21 33 29.67 1005 9 14 0.00 0.00
1:27 am 01:27 Cloudy with Light Freezing Rain 25 -3.9 23 -5 92 92 N 24 39 29.77 1008 5 8 0.00 0.03
1:53 am 01:53 Cloudy with Light Freezing Rain 25 -3.9 22 -5.6 88 88 N 26 43 29.69 1005 4 6 0.00 0.03
2:08 am 02:08 Windy with Snow Likely 25 -4 21 -6 86 86 N 23 37 29.80 1009 4 6 0.00 0.00
2:29 am 02:29 Cloudy with Light Freezing Rain 25 -4 21 -6 86 86 N 24 39 29.80 1009 4 6 0.00 0.00
2:40 am 02:40 Cloudy with Mist and Fog 24 -4.4 21 -6.1 88 88 N 25 41 29.83 1010 5 8 0.00 0.03
2:53 am 02:53 Cloudy with Light Freezing Rain 23 -5 20 -6.7 88 88 N 28 44 29.72 1007 5 8 0.00 0.03
3:33 am 03:33 Windy with Snow Likely 22 -5.6 19 -7.2 89 89 N 29 46 29.83 1010 4 6 0.00 0.03
3:53 am 03:53 Windy with Snow Likely 20 -6.7 18 -7.8 92 92 N 30 48 29.76 1008 5 8 0.00 0.03
4:53 am 04:53 Cloudy with Mist and Fog 18 -7.8 15 -9.4 88 88 N 29 46 29.77 1008 6 10 0.00 0.03
5:03 am 05:03 Cloudy 18 -7.8 15 -9.4 88 88 N 29 46 29.88 1012 8 13 0.00 0.00
5:13 am 05:13 Cloudy 18 -8 16 -9 93 93 N 25 41 29.91 1013 7 11 0.00 0.00
5:34 am 05:34 Cloudy with Mist and Fog 18 -8 16 -9 93 93 N 21 33 29.91 1013 5 8 0.00 0.00
5:50 am 05:50 Cloudy with Light Freezing Rain 18 -8 14 -10 86 86 N 26 43 29.91 1013 5 8 0.00 0.00
5:53 am 05:53 Cloudy with Light Freezing Rain 17 -8.3 14 -10 88 88 N 25 41 29.81 1010 5 8 0.00 0.03
6:01 am 06:01 Cloudy with Mist and Fog 17 -8.3 14 -10 88 88 N 24 39 29.91 1013 6 10 0.00 0.03
6:24 am 06:24 Windy with Snow Likely 18 -8 14 -10 86 86 N 23 37 29.91 1013 5 8 0.00 0.00
6:34 am 06:34 Cloudy 18 -8 12 -11 79 79 N 25 41 29.94 1014 7 11 0.00 0.00
6:53 am 06:53 Cloudy 17 -8.3 13 -10.6 84 84 N 18 30 29.86 1011 10 16 0.00 0.03
7:08 am 07:08 Cloudy 16 -9 12 -11 86 86 N 25 41 29.94 1014 10 16 0.00 0.00
7:53 am 07:53 Cloudy 16 -8.9 12 -11.1 84 84 N 24 39 29.87 1011 10 16 0.00 0.00
8:53 am 08:53 Cloudy 16 -8.9 12 -11.1 84 84 N 21 33 29.90 1013 9 14 0.00 0.03
9:53 am 09:53 Windy with Snow Likely 16 -8.9 12 -11.1 84 84 N 21 33 29.91 1013 5 8 0.00 0.03
10:53 am 10:53 Windy with Snow Likely 17 -8.3 13 -10.6 84 84 N 20 31 29.92 1013 5 8 0.00 0.03
11:53 am 11:53 Cloudy with Light Snow 17 -8.3 13 -10.6 84 84 N 17 28 29.94 1014 5 8 0.00 0.03
12:53 pm 12:53 Cloudy with Light Snow 17 -8.3 13 -10.6 84 84 N 16 26 29.92 1013 5 8 0.00 0.03
1:53 pm 13:53 Cloudy with Light Snow 17 -8.3 13 -10.6 84 84 N 18 30 29.91 1013 4 6 0.00 0.03
2:53 pm 14:53 Cloudy with Light Snow 17 -8.3 13 -10.6 84 84 N 14 22 29.91 1013 8 13 0.00 0.03
3:53 pm 15:53 Cloudy with Light Snow 17 -8.3 12 -11.1 80 80 N 16 26 29.91 1013 5 8 0.00 0.03
4:53 pm 16:53 Cloudy with Light Snow 16 -8.9 11 -11.7 80 80 N 18 30 29.91 1013 7 11 0.00 0.03
5:53 pm 17:53 Cloudy with Light Snow 15 -9.4 11 -11.7 84 84 N 12 19 29.94 1014 5 8 0.00 0.03
6:53 pm 18:53 Cloudy with Light Snow 15 -9.4 11 -11.7 84 84 NNE 12 19 29.96 1015 7 11 0.00 0.03
7:53 pm 19:53 Cloudy with Light Snow 15 -9.4 11 -11.7 84 84 N 9 15 29.96 1015 6 10 0.00 0.03
8:53 pm 20:53 Cloudy with Light Snow 15 -9.4 11 -11.7 84 84 NNE 14 22 29.94 1014 9 14 0.00 0.03
9:48 pm 21:48 Cloudy 16 -9 10 -12 79 79 N 16 26 30.00 1016 10 16 0.00 0.00
9:53 pm 21:53 Cloudy 14 -10 11 -11.7 88 88 N 17 28 29.94 1014 10 16 0.00 0.03
10:53 pm 22:53 Cloudy with Light Snow 14 -10 10 -12.2 84 84 N 15 24 29.95 1014 9 14 0.00 0.03
11:39 pm 23:39 Cloudy with Light Snow 14 -10 10 -12.2 84 84 N 14 22 30.03 1017 4 6 0.00 0.03
11:53 pm 23:53 Cloudy 14 -10 10 -12.2 84 84 N 15 24 29.96 1015 8 13 0.00 0.03

Powered by AerisWeather